Flag for Germany Weather past 2 weeks in Burg, Saxony-Anhalt, Germany

Now
59 °F

Overcast.


Feels Like: 59 °F
Forecast: 48 / 60 °F
Wind: 5 mph from West

Location: Magdeburg

Current Time: Oct 20, 2014 at 6:42:24 AM

Latest Report: Oct 20, 2014 at 4:00 AM


Visibility: 22 mi

Pressure: 29.94 "Hg

Humidity: 83%

Dew point: 54 °F

Location of BurgLocation

Historic Weather in Burg — Graph

°F

Burg temperature yesterday

Maximum temperature yesterday: 74 °F (at 3:00 PM)
Minimum temperature yesterday: 51 °F (at 8:00 AM)
Average temperature yesterday: 61 °F

Past Weeks' High & Low Weather Summary

 TemperatureHumidityPressure
High74 °F (Oct 19, 3:00 PM)98% (Oct 11, 7:00 AM)30.21 "Hg (Oct 11, 7:00 AM)
Low45 °F (Oct 5, 7:00 AM)54% (Oct 14, 4:00 PM)29.65 "Hg (Oct 7, 2:00 PM)
Average58 °F85%29.89 "Hg
* Reported Oct 5 4:00 AM — Oct 20 4:00 AM, Burg, Weather by CustomWeather, © 2014

Note: Actual official high and low records may vary slightly from our data, if they occured in-between our weather recording intervals... More about our weather records

Advertising

Burg weather history for previous 24 hours

 ConditionsComfort  
Time TempWeatherWind HumidityBarometerVisibility
4:00 AM
Oct 20
59 °FOvercast.5 mph83%29.94 "Hg22 mi
3:00 AM59 °FPassing clouds.3 mph85%29.94 "Hg31 mi
2:00 AM59 °FOvercast.2 mph87%29.93 "Hg34 mi
1:00 AM58 °FOvercast.2 mph89%29.94 "Hg40 mi
12:00 AM59 °FOvercast.5 mph87%29.93 "Hg40 mi
11:00 PM
Oct 19
57 °FRain. Overcast.7 mph90%29.95 "Hg3 mi
10:00 PM65 °FPassing clouds.6 mph78%29.89 "Hg17 mi
9:00 PM66 °FPassing clouds.6 mph77%29.89 "Hg22 mi
8:00 PM66 °FPassing clouds.6 mph76%29.89 "Hg25 mi
7:00 PM67 °FPassing clouds.6 mph74%29.90 "Hg28 mi
6:00 PM69 °FScattered clouds.3 mph69%29.91 "Hg37 mi
4:00 PM74 °FPassing clouds.6 mph60%29.93 "Hg31 mi
3:00 PM74 °FSunny.6 mph60%29.94 "Hg31 mi
2:00 PM73 °FPassing clouds.6 mph59%29.96 "Hg31 mi
1:00 PM71 °FPassing clouds.3 mph69%29.99 "Hg28 mi
12:00 PM68 °FPassing clouds.3 mph72%30.01 "Hg28 mi
10:00 AM59 °FSunny.2 mph85%30.03 "Hg16 mi
9:00 AM53 °FPassing clouds.2 mph95%30.05 "Hg16 mi
8:00 AM51 °FPassing clouds.1 mph96%30.06 "Hg19 mi
7:00 AM52 °FClear.2 mph95%30.07 "Hg19 mi
6:00 AM51 °FClear.2 mph95%30.08 "Hg12 mi
Weather by CustomWeather, © 2014

See weather overviewHow to use our weather pages